Flag for U.S.A. Weather past 2 weeks in Sedona, Arizona, U.S.A.

Now
45 °F

Overcast.


Feels Like: 45 °F
Forecast: 29 / 57 °F
Wind: No wind

Location: Sedona Airport

Current Time: Feb 27, 2015 at 10:03:46 AM

Latest Report: Feb 27, 2015 at 9:15 AM


Visibility: 10 mi

Pressure: 29.82 "Hg

Humidity: 49%

Dew point: 27 °F

Location of SedonaLocation

Historic Weather in Sedona — Graph

°F

Sedona temperature yesterday

Maximum temperature yesterday: 57 °F (at 1:55 PM)
Minimum temperature yesterday: 41 °F (at 4:15 AM)
Average temperature yesterday: 48 °F

Past Weeks' High & Low Weather Summary

 TemperatureHumidityPressure
High72 °F (Feb 13, 3:55 PM)100% (Feb 23, 12:55 AM)30.39 "Hg (Feb 23, 12:55 AM)
Low34 °F (Feb 25, 7:15 AM)11% (Feb 16, 7:55 PM)29.79 "Hg (Feb 27, 5:15 AM)
Average51 °F42%30.07 "Hg
* Reported Feb 12 8:15 AM — Feb 27 8:55 AM, Sedona, Weather by CustomWeather, © 2015

Note: Actual official high and low records may vary slightly from our data, if they occured in-between our weather recording intervals... More about our weather records

Advertising

Sedona weather history for previous 24 hours

 ConditionsComfort  
Time TempWeatherWind HumidityBarometerVisibility
8:55 AM
Fri, Feb 27
45 °FOvercast.No wind49%29.82 "Hg10 mi
8:35 AM43 °FOvercast.No wind53%29.82 "Hg10 mi
8:15 AM41 °FOvercast.No wind57%29.81 "Hg10 mi
7:55 AM43 °FPartly sunny.No wind49%29.81 "Hg10 mi
7:35 AM41 °FOvercast.No wind53%29.82 "Hg10 mi
7:15 AM43 °FOvercast.No wind46%29.81 "Hg10 mi
6:55 AM41 °FPassing clouds.No wind49%29.81 "Hg10 mi
6:35 AM41 °FPassing clouds.No wind49%29.80 "Hg10 mi
6:15 AM41 °FClear.No wind49%29.80 "Hg10 mi
5:55 AM41 °FClear.10 mph49%29.79 "Hg10 mi
5:35 AM41 °FClear.12 mph49%29.79 "Hg10 mi
5:15 AM41 °FClear.No wind49%29.79 "Hg10 mi
4:55 AM39 °FClear.9 mph52%29.81 "Hg10 mi
4:35 AM41 °FClear.No wind49%29.81 "Hg10 mi
4:15 AM41 °FClear.No wind49%29.81 "Hg10 mi
3:55 AM41 °FClear.No wind49%29.82 "Hg10 mi
3:35 AM41 °FClear.7 mph49%29.81 "Hg10 mi
3:15 AM41 °FClear.6 mph49%29.82 "Hg10 mi
2:55 AM41 °FClear.No wind49%29.83 "Hg10 mi
2:35 AM41 °FClear.10 mph49%29.83 "Hg10 mi
2:15 AM43 °FClear.No wind46%29.84 "Hg10 mi
1:55 AM43 °FClear.No wind46%29.85 "Hg10 mi
1:35 AM43 °FClear.No wind46%29.85 "Hg10 mi
1:15 AM43 °FClear.9 mph46%29.85 "Hg10 mi
12:55 AM43 °FClear.8 mph49%29.85 "Hg10 mi
12:35 AM45 °FClear.6 mph49%29.85 "Hg10 mi
12:15 AM43 °FClear.8 mph53%29.86 "Hg10 mi
11:55 PM
Thu, Feb 26
46 °FClear.No wind50%29.86 "Hg10 mi
11:15 PM46 °FPassing clouds.No wind50%29.86 "Hg10 mi
10:55 PM46 °FPassing clouds.No wind50%29.86 "Hg10 mi
10:35 PM46 °FOvercast.No wind53%29.86 "Hg10 mi
10:15 PM50 °FOvercast.No wind43%29.86 "Hg10 mi
9:15 PM50 °FPassing clouds.No wind43%29.85 "Hg10 mi
8:15 PM50 °FMostly cloudy.No wind43%29.85 "Hg10 mi
7:55 PM52 °FMostly cloudy.No wind38%29.84 "Hg10 mi
7:35 PM52 °FMostly cloudy.No wind41%29.84 "Hg10 mi
7:15 PM52 °FOvercast.No wind41%29.84 "Hg10 mi
6:55 PM50 °FLight rain. Mostly cloudy.7 mph47%29.84 "Hg10 mi
6:15 PM52 °FMore clouds than sun.No wind38%29.85 "Hg10 mi
5:55 PM52 °FCloudy.No wind41%29.84 "Hg10 mi
5:35 PM52 °FMostly cloudy.5 mph41%29.85 "Hg10 mi
5:15 PM52 °FCloudy.No wind44%29.85 "Hg10 mi
4:35 PM52 °FMore clouds than sun.20 mph44%29.84 "Hg10 mi
4:15 PM52 °FMore clouds than sun.7 mph44%29.84 "Hg10 mi
3:55 PM54 °FMore clouds than sun.No wind44%29.85 "Hg10 mi
3:35 PM54 °FMostly cloudy.6 mph41%29.85 "Hg10 mi
3:15 PM55 °FMore clouds than sun.No wind36%29.85 "Hg10 mi
2:55 PM55 °FMore clouds than sun.9 mph36%29.85 "Hg10 mi
2:15 PM55 °FPartly sunny.8 mph36%29.88 "Hg10 mi
1:55 PM57 °FScattered clouds.6 mph36%29.89 "Hg10 mi
1:35 PM55 °FSunny.No wind36%29.90 "Hg10 mi
1:15 PM54 °FScattered clouds.No wind35%29.91 "Hg10 mi
12:55 PM54 °FScattered clouds.No wind38%29.92 "Hg10 mi
12:35 PM55 °FScattered clouds.No wind38%29.94 "Hg10 mi
12:15 PM54 °FScattered clouds.3 mph38%29.96 "Hg10 mi
11:55 AM52 °FSunny.No wind41%29.96 "Hg10 mi
11:35 AM52 °FSunny.5 mph41%29.97 "Hg10 mi
11:15 AM52 °FSunny.No wind41%29.98 "Hg10 mi
10:55 AM52 °FSunny.No wind44%29.99 "Hg10 mi
10:15 AM52 °FSunny.No wind44%30.00 "Hg10 mi
Weather by CustomWeather, © 2015

See weather overviewHow to use our weather pages